STARLINK AW (44279 NORAD) Tracking and Keplerian Element Data

This shows tracking and keplerian element data for the satellite.

Feedback or suggestion? Click here.




ElementValue
Catalog44279
NameSTARLINK AW
Epoch Orbit1215
Epoch Day228.85093177
Epoch Year2019
RAAN150.7008
Inclination53.0013
Eccentricity7.7E-05
Argument of Perigee46.7316
Mean Anonmoly313.3736
Mean Motion15.05482652
Decay Rate6.9E-06
L11 44279U 19029AW 19228.85093177 .00000690 00000-0 66632-4 0 9991
L22 44279 53.0013 150.7008 0000770 46.7316 313.3736 15.05482652 12155

Live tracking and technical data element details for STARLINK AW (NORAD 44279). STARLINK AW can be tracked NOW for your location showing map with azimuth and elevation plus other details from your city location.

Track the satellite on the map from your city or location and see movement details for azimuth, elevation, latitude, longitude, range, height, and movement on the map or in text.







IsCatalogInMostPopularTable: catalog: 44279, numindb: 37
Update: records affected: 1



GetName: 44279 STARLINK AW

Hit Count: updated at: Tue, 20 Aug 2019 19:21:34 GMT